Regional Weather Roundup
Issued by NWS Sioux Falls, SD

Home | Current Version | Previous Version | Text Only | Print | Product List | Glossary Off
Versions: 1 2 3 4 5 6 7 8 9 10 11 12 13 14 15 16 17 18 19 20 21 22 23 24 25 26 27 28 29 30 31 32 33 34 35 36 37 38 39 40 41 42 43 44 45 46 47 48 49 50

000
ASUS43 KFSD 191310
RWRFSD

WEATHER ROUNDUP FOR SE SOUTH DAKOTA/SW MINNESOTA/NW IOWA
NATIONAL WEATHER SERVICE SIOUX FALLS SD
800 AM CDT TUE SEP 19 2017

NOTE: "FAIR" INDICATES FEW OR NO CLOUDS BELOW 12,000 FEET WITH NO
SIGNIFICANT WEATHER AND OR OBSTRUCTIONS TO VISIBILITY.


SDZ038>040-050-052>070-191400-
SOUTHEAST SOUTH DAKOTA

CITY           SKY/WX    TMP DP  RH WIND       PRES   REMARKS
BROOKINGS      CLOUDY    64  63  96 SE16      29.79F
CHAMBERLAIN    FOG       63  63 100 E16G22    29.65F VSB 1/2
HURON          CLOUDY    67  65  93 SE13G24   29.70F
MADISON        CLOUDY    64  64 100 SE15G24   29.78F FOG
MITCHELL       CLOUDY    68  65  90 SE14G23   29.71F
SIOUX FALLS    DRZL/FOG  66  66 100 SE12      29.79F VSB 1/2
WINNER         FAIR      66  60  81 S18       29.62F
YANKTON        CLOUDY    67  65  93 SE9       29.76S
$$

MNZ071-072-080-081-089-090-097-098-191400-
SOUTHWEST MINNESOTA

CITY           SKY/WX    TMP DP  RH WIND       PRES   REMARKS
FAIRMONT       FOG       64  63  94 SE14      29.88S VSB 3/4
JACKSON        FOG       63  63 100 SE12      29.88R VSB 3/4
LUVERNE        CLOUDY    63  61  94 SE8       29.82F FOG
MARSHALL       CLOUDY    64  64 100 SE10      29.82F
MONTEVIDEO     CLOUDY    64  64 100 S8        29.82F FOG
PIPESTONE      FOG       64  64 100 S9G18     29.81F VSB 1
REDWOOD FALLS  FOG       64  62  93 SE9       29.85S VSB 1/4
TRACY          CLOUDY    66  66 100 SE9       29.84S FOG
WORTHINGTON    FOG       64  63  96 SE10      29.85S VSB 1
$$

IAZ001>003-012>014-020>022-031-032-NEZ013-014-SDZ071-191400-
NORTHWEST IOWA

CITY           SKY/WX    TMP DP  RH WIND       PRES   REMARKS
CHEROKEE       CLOUDY    66  66 100 SE7       29.84S FOG
DENISON        CLOUDY    66  64  94 CALM      29.86S
ESTHERVILLE    FOG       63  63 100 SE10      29.87R VSB 1/4
LE MARS        CLOUDY    66  66 100 SE10      29.81S FOG
ORANGE CITY    CLOUDY    66  66 100 SE9       29.82F FOG
SHELDON        CLOUDY    64  64 100 SE9       29.81F FOG
SIOUX CITY     CLOUDY    67  67 100 SE10      29.80F FOG
SPENCER        FOG       66  65  96 SE14      29.86S VSB 1
STORM LAKE     CLOUDY    64  64 100 SE7G13    29.86S FOG
$$

ABBREVIATIONS USED IN REMARKS
   TC - TEMPERATURE IN CELSIUS
  WCI - WIND CHILL INDEX
   HX - HEAT INDEX
  VSB - VISIBILITY




USA.gov is the U.S. government's official web portal to all federal, state and local government web resources and services.